Location: Petruro
(41.0333°N, 14.7833°E)
Time: 09:44:34
(UTC+00:00)

DELTA 2 R/B (1) - Pass Details

Date: 29 October 2021
Orbit: 790 x 802 km, 39.6° (Epoch: 28 November)

Event Time Altitude Azimuth Distance (km) Brightness Sun altitude
Rises 18:59:47 0° 254° (WSW) 3,297 7.6 -34.3°
Reaches altitude 10° 19:02:17 10° 253° (WSW) 2,366 6.6 -34.7°
Enters shadow 19:05:01 30° 247° (WSW) 1,409 5.2 -35.3°
